This is the latest recevied weather packets stored in our database for station/object NO4D. If no packets are shown the sender has not sent any weather packets the latest 1 day(s).
| Time | Temp. | Humidity | Pressure | Rain* | Wind** | Luminosity | Snow |
|---|---|---|---|---|---|---|---|
| 1778027621 | 22.22° C | 53% | 1013.8 hPa | 0 mm | 0 m/s | 0 W/m² | - |
| 1778027318 | 22.22° C | 52% | 1013.6 hPa | 0 mm | 0.45 m/s, 185° | 0 W/m² | - |
| 1778027014 | 22.22° C | 52% | 1013.9 hPa | 0 mm | 0 m/s | 0 W/m² | - |
| 1778026709 | 22.78° C | 51% | 1013.9 hPa | 0 mm | 0 m/s | 0 W/m² | - |
| 1778026407 | 22.78° C | 50% | 1013.5 hPa | 0 mm | 0 m/s | 3 W/m² | - |
| 1778026104 | 23.33° C | 49% | 1013.8 hPa | 0 mm | 0.45 m/s, 193° | 6 W/m² | - |
| 1778025802 | 23.33° C | 49% | 1013.9 hPa | 0 mm | 0.45 m/s, 173° | 8 W/m² | - |
| 1778025498 | 23.33° C | 48% | 1013.7 hPa | 0 mm | 0.45 m/s, 195° | 11 W/m² | - |
| 1778025196 | 23.89° C | 49% | 1013.7 hPa | 0 mm | 0.89 m/s, 203° | 13 W/m² | - |
| 1778024893 | 23.89° C | 47% | 1013.8 hPa | 0 mm | 2.24 m/s, 204° | 17 W/m² | - |
| 1778024590 | 23.89° C | 47% | 1013.5 hPa | 0 mm | 0.89 m/s, 201° | 24 W/m² | - |
| 1778024287 | 23.89° C | 46% | 1013.7 hPa | 0 mm | 0.89 m/s, 180° | 27 W/m² | - |
| 1778023985 | 24.44° C | 46% | 1013.5 hPa | 0 mm | 2.24 m/s, 208° | 35 W/m² | - |
| 1778023682 | 24.44° C | 46% | 1013.5 hPa | 0 mm | 0.89 m/s, 200° | 36 W/m² | - |
| 1778023379 | 24.44° C | 46% | 1013.7 hPa | 0 mm | 1.34 m/s, 206° | 43 W/m² | - |
| 1778023075 | 25° C | 46% | 1013.6 hPa | 0 mm | 0.89 m/s, 209° | 81 W/m² | - |
| 1778022774 | 25° C | 46% | 1013.4 hPa | 0 mm | 0.89 m/s, 230° | 96 W/m² | - |
| 1778022472 | 25° C | 44% | 1013.7 hPa | 0 mm | 2.24 m/s, 223° | 106 W/m² | - |
| 1778022169 | 25.56° C | 45% | 1013.4 hPa | 0 mm | 1.79 m/s, 145° | 124 W/m² | - |
| 1778021865 | 25.56° C | 44% | 1013.7 hPa | 0 mm | 1.79 m/s, 196° | 138 W/m² | - |
| 1778021563 | 25.56° C | 43% | 1013.6 hPa | 0 mm | 2.24 m/s, 233° | 154 W/m² | - |
| 1778021257 | 25.56° C | 43% | 1013.6 hPa | 0 mm | 1.34 m/s, 212° | 172 W/m² | - |
| 1778020955 | 25.56° C | 42% | 1013.5 hPa | 0 mm | 3.58 m/s, 252° | 185 W/m² | - |
| 1778020653 | 25.56° C | 43% | 1013.8 hPa | 0 mm | 2.24 m/s, 187° | 200 W/m² | - |
| 1778020349 | 26.11° C | 42% | 1013.7 hPa | 0 mm | 1.79 m/s, 201° | 219 W/m² | - |
* Rain latest hour (hover to see other rain measurements)
** Current wind speed in m/s (hover to see current wind gust speed)